BEIDOU-3S IGSO-1S

Last updated on Tue May 13 2025 00:02:43 GMT+0000 (Coordinated Universal Time)

1 40549U 15019A 25131.86538543 -.00000180 00000+0 00000+0 0 9990 2 40549 49.9571 300.2819 0038502 191.1793 144.1093 1.00286564 37049
UTC large
Height (km)
Speed (km/s)
/
Latitude / Longitude
Inclination (degrees)
Orbital Period (minutes)
Azimuth
Elevation
Range (km)
Doppler Factor

Next 0 passes for location: London (51.5072 / 0.1276)

Sorry there are no passes over London.